This is the latest recevied weather packets stored in our database for station/object AE5HO. If no packets are shown the sender has not sent any weather packets the latest 10 day(s).
| Time | Temp. | Humidity | Pressure | Rain* | Wind** | Luminosity | Snow |
|---|---|---|---|---|---|---|---|
| 1787451173 | 33.33° C | 52% | 1013.8 hPa | 0 mm | - | 0 W/m² | - |
| 1787450869 | 33.33° C | 53% | 1013.8 hPa | 0 mm | - | 0 W/m² | - |
| 1787450564 | 33.33° C | 49% | 1013.7 hPa | 0 mm | - | 0 W/m² | - |
| 1787450259 | 33.89° C | 51% | 1013.5 hPa | 0 mm | - | 0 W/m² | - |
| 1787449955 | 33.89° C | 48% | 1013.4 hPa | 0 mm | - | 0 W/m² | - |
| 1787449651 | 34.44° C | 47% | 1013.1 hPa | 0 mm | - | 0 W/m² | - |
| 1787449346 | 34.44° C | 48% | 1013.3 hPa | 0 mm | - | 0 W/m² | - |
| 1787449041 | 35° C | 47% | 1012.9 hPa | 0 mm | - | 0 W/m² | - |
| 1787448741 | 35° C | 45% | 1012.8 hPa | 0 mm | - | 0 W/m² | - |
| 1787448438 | 35.56° C | 45% | 1012.8 hPa | 0 mm | - | 0 W/m² | - |
| 1787448134 | 35.56° C | 43% | 1012.9 hPa | 0 mm | - | 0 W/m² | - |
| 1787447833 | 36.11° C | 43% | 1012.8 hPa | 0 mm | - | 0 W/m² | - |
| 1787447528 | 36.11° C | 43% | 1012.8 hPa | 0 mm | - | 0 W/m² | - |
| 1787447224 | 36.11° C | 42% | 1012.8 hPa | 0 mm | - | 0 W/m² | - |
| 1787446921 | 36.67° C | 42% | 1012.7 hPa | 0 mm | - | 0 W/m² | - |
| 1787446620 | 36.67° C | 42% | 1012.7 hPa | 0 mm | - | 0 W/m² | - |
| 1787446315 | 36.67° C | 41% | 1012.7 hPa | 0 mm | - | 2 W/m² | - |
| 1787446012 | 37.22° C | 42% | 1012.8 hPa | 0 mm | - | 6 W/m² | - |
| 1787445708 | 37.78° C | 40% | 1012.7 hPa | 0 mm | - | 9 W/m² | - |
| 1787445404 | 38.33° C | 39% | 1012.7 hPa | 0 mm | - | 11 W/m² | - |
| 1787445099 | 38.89° C | 40% | 1012.8 hPa | 0 mm | - | 16 W/m² | - |
| 1787444795 | 39.44° C | 37% | 1012.9 hPa | 0 mm | - | 24 W/m² | - |
| 1787444491 | 40° C | 36% | 1012.9 hPa | 0 mm | - | 32 W/m² | - |
| 1787444191 | 39.44° C | 37% | 1013 hPa | 0 mm | - | 43 W/m² | - |
| 1787443891 | 38.89° C | 37% | 1013 hPa | 0 mm | - | 45 W/m² | - |
* Rain latest hour (hover to see other rain measurements)
** Current wind speed in m/s (hover to see current wind gust speed)